Regional Weather Roundup
Issued by NWS

Home | Current Version | Previous Version | Text Only | Print | Product List | Glossary On
Versions: 1 2 3 4 5 6 7 8 9 10 11 12 13 14 15 16 17 18 19 20 21 22 23 24 25 26 27
000
ASUS44 KBMX 291810
RWRAL

ALABAMA REGIONAL WEATHER ROUNDUP
NATIONAL WEATHER SERVICE BIRMINGHAM AL
100 PM CDT SAT APR 29 2017

NOTE: "FAIR" INDICATES FEW OR NO CLOUDS BELOW 12,000 FEET
WITH NO SIGNIFICANT WEATHER AND/OR OBSTRUCTIONS TO VISIBILITY.

THE REMARK "TC" DENOTES TEMPERATURE IN DEGREES CELSIUS.

ALZ001>011-014-016>018-020-291900-
NORTH ALABAMA

CITY           SKY/WX    TMP DP  RH WIND       PRES   REMARKS
MUSCLE SHOALS  MOSUNNY   86  67  52 S16G33    29.99F
6HR MIN TEMP:  73; 6HR MAX TEMP:  86;

HUNTSVILLE     PTSUNNY   89  67  47 S22G35    30.02F HX  92
6HR MIN TEMP:  71; 6HR MAX TEMP:  89;

DECATUR        MOSUNNY   83  69  62 S20G31    30.02F
6HR MIN TEMP:  69; 6HR MAX TEMP:  84;

HALEYVILLE     CLOUDY    81  69  67 S16G23    30.05F
6HR MIN TEMP:  70; 6HR MAX TEMP:  82;

GADSDEN        MOSUNNY  N/A N/A N/A S13G22    30.07F
$$

ALZ012-013-022-023-030>036-040>044-291900-
WEST CENTRAL ALABAMA

CITY           SKY/WX    TMP DP  RH WIND       PRES   REMARKS
TUSCALOOSA     CLOUDY    84  69  60 S17G23    30.02F
6HR MIN TEMP:  72; 6HR MAX TEMP:  85;

$$

ALZ015-024>027-033>036-040>044-291900-
CENTRAL ALABAMA

CITY           SKY/WX    TMP DP  RH WIND       PRES   REMARKS
BIRMINGHAM     PTSUNNY   84  68  58 SE15G23   30.09S
6HR MIN TEMP:  72; 6HR MAX TEMP:  85;

MONTGOMERY     CLOUDY    87  69  54 SE10G22   30.06F HX  91
6HR MIN TEMP:  73; 6HR MAX TEMP:  87;

SHELBY CO ARPT CLOUDY    84  71  65 S12G20    30.07S
6HR MIN TEMP:  70; 6HR MAX TEMP:  85;

MAXWELL AFB    PTSUNNY   86  71  60 SE14G21   30.05F HX  91
6HR MIN TEMP:  71; 6HR MAX TEMP:  86;

GREENVILLE     FAIR      85  68  56 SE9       30.05F
6HR MIN TEMP:  73; 6HR MAX TEMP:  85;

$$

ALZ019-021-028-029-037-038-045>048-291900-
EAST CENTRAL ALABAMA

CITY           SKY/WX    TMP DP  RH WIND       PRES   REMARKS
ANNISTON       MOSUNNY   87  70  56 S12G22    30.08F HX  92
6HR MIN TEMP:  71; 6HR MAX TEMP:  87;

ALEXANDER CITY CLOUDY    83  70  65 S12G22    30.09F
6HR MIN TEMP:  71; 6HR MAX TEMP:  83;

AUBURN         CLOUDY    83  71  67 S13       30.12F
6HR MIN TEMP:  70; 6HR MAX TEMP:  84;

$$

ALZ051>064-291900-
SOUTHWEST ALABAMA

CITY           SKY/WX    TMP DP  RH WIND       PRES   REMARKS
MOBILE         CLOUDY    83  71  67 S18G24    30.03S
6HR MIN TEMP:  76; 6HR MAX TEMP:  84;

BROOKLEY FIELD CLOUDY    83  75  77 SE21      30.03S HX  90
6HR MIN TEMP:  77; 6HR MAX TEMP:  83;

EVERGREEN      CLOUDY    86  68  54 S17       30.06S
6HR MIN TEMP:  73; 6HR MAX TEMP:  86; 6HR PCP: TRACE;

$$

ALZ049-050-065>069-291900-
SOUTHEAST ALABAMA

CITY           SKY/WX    TMP DP  RH WIND       PRES   REMARKS
DOTHAN         CLOUDY    86  67  52 SE15G23   30.12F
6HR MIN TEMP:  73; 6HR MAX TEMP:  87;

OZARK          CLOUDY    87  68  53 SE13G20   30.07F HX  90
6HR MIN TEMP:  71; 6HR MAX TEMP:  88;

TROY           CLOUDY    84  68  58 S15G30    30.08F
6HR MIN TEMP:  72; 6HR MAX TEMP:  85;

EUFAULA        PTSUNNY   87  70  56 S9        30.09S HX  92
6HR MIN TEMP:  72; 6HR MAX TEMP:  90;

$$




USA.gov is the U.S. government's official web portal to all federal, state and local government web resources and services.